Regional Weather Roundup
Issued by NWS Sterling, VA

Home | Current Version | Previous Version | Text Only | Print | Product List | Glossary Off
Versions: 1 2 3 4 5 6 7 8 9 10 11 12 13 14 15 16 17 18 19 20 21 22 23 24 25 26 27 28 29 30 31 32 33 34 35 36 37 38 39 40 41 42 43 44 45 46 47 48 49 50

000
ASUS41 KLWX 091610
RWRLWX

REGIONAL WEATHER ROUNDUP
NATIONAL WEATHER SERVICE BALTIMORE MD/WASHINGTON DC
1100 AM EST TUE FEB 09 2016

Note: "FAIR" indicates few or no clouds below 12,000 feet
with no significant weather and/or obstructions to visibility.
 TC=TEMPERATURE CELSIUS

 * =Non NWS site. Station does not report precipitation (e.g. rain,
    snow, etc.), thunder, or fog.

DCZ001-MDZ009-015-VAZ040>042-051-053>054-091700-
WASHINGTON METRO

CITY           SKY/WX    TMP DP  RH WIND       PRES   REMARKS
WASHINGTON NAT LGT RAIN  37  35  92 CALM      29.59S
DULLES         SNOW      34  32  92 N3        29.58S VSB 1/2
ANDREWS AFB    LGT RAIN  36  35  94 CALM      29.56S
FT BELVOIR     LGT RAIN  37  36  93 W9        29.59R
QUANTICO       LGT RAIN  39  36  89 NW9       29.60S
COLLEGE PARK*  FAIR      34  34 100 CALM      29.58S
LEESBURG*      LGT RAIN  36  36 100 CALM      29.58F
GAITHERSBURG*  CLOUDY    34  28  80 CALM      29.60S VSB 3/4

$$

MDZ006>007-011-014-091700-
BALTIMORE METRO

CITY           SKY/WX    TMP DP  RH WIND       PRES   REMARKS
BWI AIRPORT    LGT SNOW  34  32  92 NE7       29.57F FOG
MD SCIENCE CTR   N/A     34  32  92 MISG      29.59S
MARTIN STATE   LGT SNOW  34  34 100 NE6       29.60F
ANNAPOLIS      CLOUDY    36  34  92 NE3       29.58S
FORT MEADE*    CLOUDY    32  32 100 CALM      29.60S

$$

MDZ012-015-019>023-091700-
MARYLAND EASTERN SHORE

CITY           SKY/WX    TMP DP  RH WIND       PRES   REMARKS
OCEAN CITY     LGT RAIN  41  37  86 NE5       29.57S
SALISBURY      LGT RAIN  40  38  93 NE7       29.57S
BAY BRIDGE AP* DRIZZLE   36  36 100 CALM      29.58S
CAMBRIDGE*     CLOUDY    37  36  93 E6        29.57S
EASTON*        LGT RAIN  37  37 100 E7        29.61F

$$

MDZ017>025-091700-
SOUTHERN MARYLAND

CITY           SKY/WX    TMP DP  RH WIND       PRES   REMARKS
PATUXENT RIVER LGT RAIN  39  36  89 E5        29.57S FOG
ST INIGOES     CLOUDY    41  38  89 E5        29.57S
LEONARDTOWN*   CLOUDY    37  36  93 E3        29.58S

$$

MDZ003>005-091700-
NORTH CENTRAL MARYLAND

CITY           SKY/WX    TMP DP  RH WIND       PRES   REMARKS
FREDERICK*     LGT SNOW  34  34 100 CALM      29.61S VSB 3/4
HAGERSTOWN APT LGT SNOW  34  31  88 E3        29.55F VSB 3/4
WESTMINSTER*   LGT SNOW  32  30  93 CALM      29.56S VSB 1

$$

MDZ501>502-091700-
WESTERN MARYLAND

CITY           SKY/WX    TMP DP  RH WIND       PRES   REMARKS
OAKLAND*       CLOUDY    21  18  86 W10       29.50S FOG     WCI  10
CUMBERLAND*    CLOUDY    34  23  64 CALM      29.62S

$$

VAZ025>031-091700-
SHENANDOAH VALLEY

CITY           SKY/WX    TMP DP  RH WIND       PRES   REMARKS
WINCHESTER*    LGT SNOW  34  32  93 W12G21    29.57R VSB 3/4 WCI  25
FRONT ROYAL*   CLOUDY    34  34 100 CALM      29.56F
LURAY*         CLOUDY    34  32  93 W8        29.57S WCI  27
NEW MARKET*    CLOUDY    34  30  84 CALM      29.57S
STAUNTON*      CLOUDY    38  28  65 W7        29.59R
WAYNESBORO*    CLOUDY    33  23  65 W7G18     29.57S

$$

WVZ021-048>050-054>055-091700-
EASTERN WEST VIRGINIA PANHANDLE

CITY           SKY/WX    TMP DP  RH WIND       PRES   REMARKS
MARTINSBURG    MIX PCPN  36  31  82 W12       29.56S WCI  28
PETERSBURG*    CLOUDY    33  18  54 W14G21    29.61R WCI  24

$$

VAZ036>039-050-091700-
CENTRAL FOOTHILLS

CITY           SKY/WX    TMP DP  RH WIND       PRES   REMARKS
CHARLOTTESVILL CLOUDY    39  30  70 VRB5      29.58S
CULPEPER*      LGT RAIN  37  35  90 N5        29.59S
ORANGE*        CLOUDY    41  36  81 SW9       29.60S
GORDONSVILLE*  CLOUDY    38  33  81 SW5       29.58S
WARRENTON*     LGT RAIN  36  36 100 CALM      29.58S

$$

VAZ055>057-091700-
NORTH AND CENTRAL PIEDMONT

CITY           SKY/WX    TMP DP  RH WIND       PRES   REMARKS
FREDERICKSBRG* CLOUDY    38  38  98 NW7       29.59R
STAFFORD*      CLOUDY    37  35  91 NW8       29.63R

$$

NCZ024-NYZ072-PAZ021-071-VAZ022-071-091700-
OTHER REGIONAL OBSERVATIONS

CITY           SKY/WX    TMP DP  RH WIND       PRES   REMARKS
NEW YORK CITY  CLOUDY    31  21  66 NE7       29.64F
PHILADELPHIA   CLOUDY    34  29  82 NE10      29.61F WCI  26
PITTSBURGH     LGT SNOW  30  27  88 W8        29.56S VSB 1   WCI  22
ROANOKE        CLOUDY    32  18  56 NW21G26   29.65F WCI  20
RICHMOND       PTSUNNY   42  33  70 W13       29.59S
RALEIGH        PTSUNNY   42  28  57 VRB7      29.66F

$$

ANZ530>537-091700-
MARINE OBSERVATIONS

STATION/POSITION TIME  TEMP    WIND        PRES
                       AIR SEA DIR/SP/G
                 (UTC) (F)     (DEG/KT/KT) (MB)
THOMAS PT LIGHT  NOT AVBL
BALT KEY BRIDGE  1500   33      50/  6/  7 1002.1F
COVE POINT       1500   37     130/  5/  7 1002.1F
LEWISETTA        1500   40 42   80/  7/  9 1000.7F
SOLOMONS ISLAND  1500   38 41   90/  5/  6   N/A
PINEY POINT      1500          130/  4/  5   N/A

$$




USA.gov is the U.S. government's official web portal to all federal, state and local government web resources and services.